Tracking 30415 objects as of 14-May-2025
HD Live streaming from Space Station
objects crossing your sky now

THORAD AGENA D DEB

Track THORAD AGENA D DEB now!
10-day predictions


NORAD ID: 4743
Int'l Code: 1970-025CS
Perigee: 1,023.4 km
Apogee: 1,075.8 km
Inclination: 99.9 °
Period: 106.0 minutes
Semi major axis: 7420 km
RCS: 0.1102 m2 (medium)
Launch date: April 8, 1970
Source: United States (US)
Launch site: AIR FORCE WESTERN TEST RANGE (AFWTR)

Note: This is SATELLITE DEBRIS
Your satellite tracking list
Your tracking list is empty




NASA's NSSDC Master Catalog

Two Line Element Set (TLE):
1 04743U 70025CS  25133.80778718  .00000396  00000-0  60807-3 0  9994
2 04743  99.9329 204.3499 0035285 227.4141 255.9976 13.58140152718836
Source of the keplerian elements: AFSPC